Time,TemperatureF,DewpointF,PressureIn,WindDirection,WindDirectionDegrees,WindSpeedMPH,WindSpeedGustMPH,Humidity,HourlyPrecipIn,Conditions,Clouds,dailyrainin,SoftwareType,DateUTC
2013-08-09 00:00:00,67.5,65.1,30.04,SW,225,1.7,-999.0,92,-99.99,,,0.00,Acu-Link.com,2013-08-09 05:00:00,
2013-08-09 00:16:00,67.6,64.9,30.04,SSW,202,1.1,-999.0,91,-99.99,,,0.00,Acu-Link.com,2013-08-09 05:16:00,
2013-08-09 00:31:00,68.5,64.8,30.04,SW,225,0.0,-999.0,88,-99.99,,,0.00,Acu-Link.com,2013-08-09 05:31:00,
2013-08-09 00:46:00,68.4,65.0,30.04,SW,225,2.2,-999.0,89,-99.99,,,0.00,Acu-Link.com,2013-08-09 05:46:00,
2013-08-09 01:01:00,68.4,65.0,30.05,NNW,337,0.0,-999.0,89,-99.99,,,0.00,Acu-Link.com,2013-08-09 06:01:00,
2013-08-09 01:16:00,68.0,65.0,30.04,WSW,247,2.2,-999.0,90,-99.99,,,0.00,Acu-Link.com,2013-08-09 06:16:00,
2013-08-09 01:32:00,68.0,65.0,30.04,South,180,2.7,-999.0,90,-99.99,,,0.00,Acu-Link.com,2013-08-09 06:32:00,
2013-08-09 01:47:00,68.0,64.6,30.03,SE,135,0.0,-999.0,89,-99.99,,,0.00,Acu-Link.com,2013-08-09 06:47:00,
2013-08-09 02:02:00,67.5,65.1,30.03,NE,45,0.0,-999.0,92,-99.99,,,0.00,Acu-Link.com,2013-08-09 07:02:00,
2013-08-09 02:17:00,66.7,64.9,30.03,South,180,0.0,-999.0,94,-99.99,,,0.00,Acu-Link.com,2013-08-09 07:17:00,
2013-08-09 02:33:00,66.2,64.7,30.04,SSE,157,0.0,-999.0,95,-99.99,,,0.00,Acu-Link.com,2013-08-09 07:33:00,
2013-08-09 02:48:00,65.8,64.6,30.04,West,270,0.0,-999.0,96,-99.99,,,0.00,Acu-Link.com,2013-08-09 07:48:00,
2013-08-09 03:03:00,65.8,64.9,30.04,ESE,112,0.0,-999.0,97,-99.99,,,0.00,Acu-Link.com,2013-08-09 08:03:00,
2013-08-09 03:19:00,65.8,64.9,30.05,SSE,157,0.0,-999.0,97,-99.99,,,0.00,Acu-Link.com,2013-08-09 08:19:00,
2013-08-09 03:34:00,65.8,65.2,30.05,WNW,292,0.0,-999.0,98,-99.99,,,0.00,Acu-Link.com,2013-08-09 08:34:00,
2013-08-09 03:49:00,65.8,65.2,30.04,SSW,202,0.0,-999.0,98,-99.99,,,0.00,Acu-Link.com,2013-08-09 08:49:00,
2013-08-09 04:04:00,65.8,64.9,30.04,NNW,337,0.0,-999.0,97,-99.99,,,0.00,Acu-Link.com,2013-08-09 09:04:00,
2013-08-09 04:20:00,65.8,65.2,30.05,North,0,1.7,-999.0,98,-99.99,,,0.00,Acu-Link.com,2013-08-09 09:20:00,
2013-08-09 04:35:00,65.8,65.2,30.05,SW,225,0.0,-999.0,98,-99.99,,,0.00,Acu-Link.com,2013-08-09 09:35:00,
2013-08-09 04:50:00,66.0,65.7,30.05,West,270,0.0,-999.0,99,-99.99,,,0.00,Acu-Link.com,2013-08-09 09:50:00,
2013-08-09 05:05:00,66.2,65.9,30.05,NNW,337,3.2,-999.0,99,-99.99,,,0.00,Acu-Link.com,2013-08-09 10:05:00,
2013-08-09 05:21:00,66.4,66.1,30.06,SE,135,0.0,-999.0,99,-99.99,,,0.00,Acu-Link.com,2013-08-09 10:21:00,
2013-08-09 05:36:00,66.4,66.1,30.05,WNW,292,1.1,-999.0,99,-99.99,,,0.00,Acu-Link.com,2013-08-09 10:36:00,
2013-08-09 05:51:00,66.0,65.4,30.05,NNW,337,1.7,-999.0,98,-99.99,,,0.00,Acu-Link.com,2013-08-09 10:51:00,
2013-08-09 06:07:00,66.0,65.4,30.06,NW,315,2.2,-999.0,98,-99.99,,,0.00,Acu-Link.com,2013-08-09 11:07:00,
2013-08-09 06:22:00,66.2,65.6,30.06,North,0,2.2,-999.0,98,-99.99,,,0.00,Acu-Link.com,2013-08-09 11:22:00,
2013-08-09 06:37:00,66.2,65.6,30.06,North,0,2.2,-999.0,98,-99.99,,,0.00,Acu-Link.com,2013-08-09 11:37:00,
2013-08-09 06:52:00,66.2,65.6,30.06,North,0,2.7,-999.0,98,-99.99,,,0.00,Acu-Link.com,2013-08-09 11:52:00,
2013-08-09 07:07:00,66.4,65.8,30.07,NNE,22,3.7,-999.0,98,-99.99,,,0.00,Acu-Link.com,2013-08-09 12:07:00,
2013-08-09 07:23:00,66.7,65.8,30.07,North,0,4.2,-999.0,97,-99.99,,,0.00,Acu-Link.com,2013-08-09 12:23:00,
2013-08-09 07:38:00,67.3,66.1,30.07,NNE,22,1.7,-999.0,96,-99.99,,,0.00,Acu-Link.com,2013-08-09 12:38:00,
2013-08-09 07:53:00,67.6,65.8,30.07,North,0,4.7,-999.0,94,-99.99,,,0.00,Acu-Link.com,2013-08-09 12:53:00,
2013-08-09 08:08:00,68.7,66.6,30.07,NE,45,2.7,-999.0,93,-99.99,,,0.00,Acu-Link.com,2013-08-09 13:08:00,
2013-08-09 08:23:00,71.1,67.0,30.07,North,0,3.7,-999.0,87,-99.99,,,0.00,Acu-Link.com,2013-08-09 13:23:00,
2013-08-09 10:41:00,85.3,68.3,30.09,NE,45,6.3,-999.0,57,-99.99,,,0.00,Acu-Link.com,2013-08-09 15:41:00,
2013-08-09 10:56:00,85.5,66.4,30.09,NE,45,6.8,-999.0,53,-99.99,,,0.00,Acu-Link.com,2013-08-09 15:56:00,
2013-08-09 11:11:00,85.5,66.9,30.09,NNW,337,5.3,-999.0,54,-99.99,,,0.00,Acu-Link.com,2013-08-09 16:11:00,
2013-08-09 11:26:00,85.5,66.4,30.09,NE,45,6.8,-999.0,53,-99.99,,,0.00,Acu-Link.com,2013-08-09 16:26:00,
2013-08-09 11:41:00,84.6,66.6,30.09,NNE,22,5.8,-999.0,55,-99.99,,,0.00,Acu-Link.com,2013-08-09 16:41:00,
2013-08-09 11:57:00,85.1,67.6,30.09,NNE,22,5.3,-999.0,56,-99.99,,,0.00,Acu-Link.com,2013-08-09 16:57:00,
2013-08-09 12:12:00,86.0,67.4,30.09,ENE,67,4.7,-999.0,54,-99.99,,,0.00,Acu-Link.com,2013-08-09 17:12:00,
2013-08-09 12:27:00,87.8,67.4,30.08,NNW,337,5.3,-999.0,51,-99.99,,,0.00,Acu-Link.com,2013-08-09 17:27:00,
2013-08-09 12:42:00,87.4,66.4,30.09,North,0,4.2,-999.0,50,-99.99,,,0.00,Acu-Link.com,2013-08-09 17:42:00,
2013-08-09 12:58:00,86.7,66.4,30.08,East,90,2.7,-999.0,51,-99.99,,,0.00,Acu-Link.com,2013-08-09 17:58:00,
2013-08-09 13:13:00,87.4,67.0,30.08,NNW,337,2.2,-999.0,51,-99.99,,,0.00,Acu-Link.com,2013-08-09 18:13:00,
2013-08-09 13:28:00,86.5,67.3,30.09,NNE,22,3.2,-999.0,53,-99.99,,,0.00,Acu-Link.com,2013-08-09 18:28:00,
2013-08-09 13:43:00,86.7,68.0,30.08,NE,45,4.2,-999.0,54,-99.99,,,0.00,Acu-Link.com,2013-08-09 18:43:00,
2013-08-09 13:58:00,87.4,68.1,30.08,NNW,337,1.7,-999.0,53,-99.99,,,0.00,Acu-Link.com,2013-08-09 18:58:00,
2013-08-09 14:14:00,88.5,68.6,30.08,ESE,112,2.7,-999.0,52,-99.99,,,0.00,Acu-Link.com,2013-08-09 19:14:00,
2013-08-09 14:29:00,89.4,68.3,30.08,East,90,3.7,-999.0,50,-99.99,,,0.00,Acu-Link.com,2013-08-09 19:29:00,
2013-08-09 14:44:00,88.2,67.8,30.08,South,180,2.2,-999.0,51,-99.99,,,0.00,Acu-Link.com,2013-08-09 19:44:00,
2013-08-09 14:59:00,89.8,68.1,30.08,East,90,2.2,-999.0,49,-99.99,,,0.00,Acu-Link.com,2013-08-09 19:59:00,
2013-08-09 15:14:00,87.8,67.9,30.07,ENE,67,1.7,-999.0,52,-99.99,,,0.00,Acu-Link.com,2013-08-09 20:14:00,
2013-08-09 15:30:00,88.5,68.6,30.08,ENE,67,2.7,-999.0,52,-99.99,,,0.00,Acu-Link.com,2013-08-09 20:30:00,
2013-08-09 15:45:00,89.4,67.7,30.07,ENE,67,3.2,-999.0,49,-99.99,,,0.00,Acu-Link.com,2013-08-09 20:45:00,
2013-08-09 16:00:00,87.6,67.8,30.08,ENE,67,2.7,-999.0,52,-99.99,,,0.00,Acu-Link.com,2013-08-09 21:00:00,
2013-08-09 16:15:00,85.3,68.3,30.07,ENE,67,1.1,-999.0,57,-99.99,,,0.00,Acu-Link.com,2013-08-09 21:15:00,
2013-08-09 16:30:00,84.6,67.7,30.07,North,0,1.7,-999.0,57,-99.99,,,0.00,Acu-Link.com,2013-08-09 21:30:00,
2013-08-09 16:46:00,83.7,66.8,30.07,South,180,0.0,-999.0,57,-99.99,,,0.00,Acu-Link.com,2013-08-09 21:46:00,
2013-08-09 17:01:00,83.3,69.4,30.08,NE,45,0.0,-999.0,63,-99.99,,,0.00,Acu-Link.com,2013-08-09 22:01:00,
2013-08-09 17:16:00,81.3,68.8,30.08,East,90,1.1,-999.0,66,-99.99,,,0.00,Acu-Link.com,2013-08-09 22:16:00,
2013-08-09 17:32:00,79.3,68.2,30.08,ESE,112,0.0,-999.0,69,-99.99,,,0.00,Acu-Link.com,2013-08-09 22:32:00,
2013-08-09 17:47:00,79.0,68.8,30.08,ESE,112,1.1,-999.0,71,-99.99,,,0.00,Acu-Link.com,2013-08-09 22:47:00,
2013-08-09 18:02:00,81.1,68.2,30.08,NNE,22,2.7,-999.0,65,-99.99,,,0.00,Acu-Link.com,2013-08-09 23:02:00,
2013-08-09 18:17:00,79.5,66.7,30.08,NE,45,5.8,-999.0,65,-99.99,,,0.00,Acu-Link.com,2013-08-09 23:17:00,
2013-08-09 18:32:00,78.6,66.3,30.07,NNW,337,5.3,-999.0,66,-99.99,,,0.00,Acu-Link.com,2013-08-09 23:32:00,
2013-08-09 18:48:00,79.9,66.6,30.07,NNW,337,6.3,-999.0,64,-99.99,,,0.00,Acu-Link.com,2013-08-09 23:48:00,
2013-08-09 19:03:00,79.9,65.2,30.08,NE,45,6.8,-999.0,61,-99.99,,,0.00,Acu-Link.com,2013-08-10 00:03:00,
2013-08-09 19:18:00,77.7,65.4,30.08,NE,45,4.7,-999.0,66,-99.99,,,0.00,Acu-Link.com,2013-08-10 00:18:00,
2013-08-09 19:33:00,76.5,65.1,30.08,NNE,22,7.3,-999.0,68,-99.99,,,0.00,Acu-Link.com,2013-08-10 00:33:00,
2013-08-09 19:48:00,75.4,64.9,30.08,NNW,337,4.7,-999.0,70,-99.99,,,0.00,Acu-Link.com,2013-08-10 00:48:00,
2013-08-09 20:04:00,74.5,64.9,30.09,North,0,3.7,-999.0,72,-99.99,,,0.00,Acu-Link.com,2013-08-10 01:04:00,
2013-08-09 20:19:00,73.4,64.6,30.10,NNW,337,2.7,-999.0,74,-99.99,,,0.00,Acu-Link.com,2013-08-10 01:19:00,
2013-08-09 20:34:00,72.5,64.5,30.10,NNW,337,2.2,-999.0,76,-99.99,,,0.00,Acu-Link.com,2013-08-10 01:34:00,
2013-08-09 20:49:00,72.0,64.0,30.11,North,0,3.7,-999.0,76,-99.99,,,0.00,Acu-Link.com,2013-08-10 01:49:00,
2013-08-09 21:05:00,71.4,63.4,30.11,NW,315,3.7,-999.0,76,-99.99,,,0.00,Acu-Link.com,2013-08-10 02:05:00,
2013-08-09 21:20:00,70.7,63.1,30.12,NW,315,2.7,-999.0,77,-99.99,,,0.00,Acu-Link.com,2013-08-10 02:20:00,
2013-08-09 21:35:00,70.3,62.4,30.13,NNE,22,3.2,-999.0,76,-99.99,,,0.00,Acu-Link.com,2013-08-10 02:35:00,
2013-08-09 21:50:00,70.3,62.4,30.14,NW,315,3.7,-999.0,76,-99.99,,,0.00,Acu-Link.com,2013-08-10 02:50:00,
2013-08-09 22:05:00,69.8,61.9,30.15,NNW,337,2.7,-999.0,76,-99.99,,,0.00,Acu-Link.com,2013-08-10 03:05:00,
2013-08-09 22:21:00,69.1,61.6,30.15,NE,45,2.2,-999.0,77,-99.99,,,0.00,Acu-Link.com,2013-08-10 03:21:00,
2013-08-09 22:36:00,68.7,61.2,30.15,NNW,337,2.7,-999.0,77,-99.99,,,0.00,Acu-Link.com,2013-08-10 03:36:00,
2013-08-09 22:51:00,68.2,61.1,30.15,NNE,22,1.7,-999.0,78,-99.99,,,0.00,Acu-Link.com,2013-08-10 03:51:00,
2013-08-09 23:06:00,67.6,60.5,30.15,North,0,2.7,-999.0,78,-99.99,,,0.00,Acu-Link.com,2013-08-10 04:06:00,
2013-08-09 23:21:00,67.5,60.8,30.15,North,0,2.7,-999.0,79,-99.99,,,0.00,Acu-Link.com,2013-08-10 04:21:00,
2013-08-09 23:37:00,66.9,60.5,30.16,NW,315,2.2,-999.0,80,-99.99,,,0.00,Acu-Link.com,2013-08-10 04:37:00,
2013-08-09 23:52:00,66.4,60.0,30.16,NNE,22,2.7,-999.0,80,-99.99,,,0.00,Acu-Link.com,2013-08-10 04:52:00,